Wind_Speed
41 39 38 38 38 38 36 34 32 31 31 30 29 28 28 27 27 26 23 20 19 19 19 19 18 18 18 18 17 17 17 17 17 16 16 15 15 14 13 13 12 12 11 11 11 11 10 10 9
43 41 40 39 39 38 36 34 33 32 32 32 31 30 30 29 29 27 25 23 22 21 21 20 20 20 20 20 19 19 18 18 18 18 18 17 17 16 15 15 14 14 13 13 13 12 12 12 11
44 43 42 41 40 38 37 36 35 34 34 33 32 32 31 31 30 29 27 26 25 24 23 23 22 22 21 21 21 20 20 20 20 19 19 19 19 18 17 17 16 15 15 15 14 14 13 13 13
45 44 44 43 41 38 38 37 36 36 35 34 33 33 33 32 31 31 30 29 28 27 27 26 25 24 24 23 22 22 22 21 21 21 20 20 20 19 19 18 18 18 17 17 16 16 15 15 15
45 45 44 43 41 39 39 38 37 37 36 35 35 34 34 33 33 32 32 31 30 30 29 29 28 27 26 25 24 23 23 23 23 22 22 21 21 20 20 20 19 19 19 19 19 18 17 17 16
45 45 45 43 42 40 39 39 37 37 36 36 36 35 34 34 34 33 33 32 32 31 32 32 31 30 29 28 27 26 25 25 24 24 23 22 22 22 21 21 21 21 20 20 20 20 20 19 18
44 44 44 43 42 41 39 39 38 37 37 36 36 36 35 35 35 34 33 33 33 33 33 33 33 33 32 31 30 29 28 27 27 26 26 25 24 24 23 23 22 22 22 22 22 22 22 21 21
43 43 43 42 41 40 39 39 39 38 37 36 36 35 35 35 35 35 35 34 34 34 34 34 35 35 35 34 33 32 31 30 30 29 29 28 27 26 26 25 24 24 23 23 23 24 23 23 23
41 42 42 41 40 39 39 39 39 38 37 36 36 36 35 35 35 35 35 35 35 35 34 35 35 36 36 36 36 35 34 33 33 32 31 31 30 29 28 27 27 26 25 25 25 25 25 25 24
40 40 40 40 39 39 38 38 38 38 37 37 36 36 36 36 36 36 36 36 35 35 35 35 36 36 37 37 37 37 37 36 35 35 34 34 33 32 31 30 30 29 29 28 27 27 27 27 26
38 38 39 39 39 39 39 38 38 38 38 37 37 37 37 36 36 36 36 37 37 36 36 36 37 37 37 37 38 38 38 38 38 37 37 36 36 35 33 33 33 32 32 31 30 29 29 29 28
36 36 37 38 38 39 38 38 38 38 38 38 38 38 37 37 37 37 37 38 38 38 38 38 38 38 39 39 39 39 39 40 40 40 39 38 38 37 37 36 36 35 34 34 33 33 32 31 31
35 35 36 36 37 38 38 38 38 38 39 39 38 38 38 38 38 38 39 39 39 39 39 39 39 40 41 41 41 41 40 41 41 41 40 40 39 39 39 39 38 38 37 37 36 36 35 34 33
33 34 35 36 36 36 37 38 38 38 39 39 39 39 39 39 39 39 39 40 40 40 41 41 41 41 42 42 43 43 43 42 42 42 42 42 41 41 41 41 40 39 39 39 38 37 38 37 36
31 32 33 34 35 35 36 36 37 38 38 38 39 39 39 40 40 40 40 41 41 42 42 43 43 43 43 43 44 44 44 44 43 43 43 43 43 43 42 42 42 41 41 40 40 39 39 39 38
28 30 30 31 33 34 35 35 36 36 37 38 38 39 40 40 40 41 41 42 43 43 43 44 45 45 45 45 45 45 45 45 45 45 44 44 44 45 44 44 43 43 43 42 41 41 41 41 40
24 26 27 28 30 31 33 33 34 35 36 36 37 38 40 40 41 42 42 43 44 44 45 45 46 47 47 47 47 47 47 47 47 47 46 46 46 45 45 45 45 45 45 44 43 43 43 43 42
20 22 24 26 27 28 30 31 32 33 35 35 36 38 39 40 41 41 42 44 45 45 46 46 47 47 48 48 48 49 48 48 48 48 48 48 48 47 46 46 46 46 46 45 45 45 45 44 44
18 19 21 23 25 25 27 28 29 31 33 34 35 37 38 39 40 40 41 42 43 44 45 46 47 47 47 48 49 49 49 49 49 49 50 50 49 49 49 48 47 48 47 46 47 47 47 46 45
17 17 17 18 20 22 24 25 27 29 31 33 34 35 36 37 37 38 40 41 42 42 43 44 46 47 47 48 49 50 50 50 51 51 51 51 51 51 51 49 48 49 49 49 48 49 48 46 46
15 15 15 16 17 19 21 23 24 26 28 30 31 32 33 34 35 36 37 39 40 41 42 42 43 45 46 47 49 50 51 51 51 52 52 52 53 53 53 52 51 50 50 51 51 50 49 49 49
12 14 14 15 16 18 19 20 21 23 24 25 27 28 30 31 32 33 34 35 36 37 39 40 41 42 43 45 46 47 49 50 51 51 52 52 52 53 54 54 54 53 51 51 50 50 50 50 50
10 12 13 14 15 17 18 19 19 20 21 22 23 24 25 27 28 29 31 32 33 34 36 38 39 39 40 42 43 43 45 47 48 49 49 49 49 49 51 51 51 51 51 51 50 50 50 50 51
8 9 10 10 12 13 15 16 15 16 17 18 19 20 22 24 25 26 28 29 30 30 32 33 35 36 37 38 39 40 42 43 44 46 46 47 46 46 46 47 48 49 50 50 49 49 49 49 50
7 8 8 8 8 9 10 11 12 12 14 15 16 17 18 20 21 23 25 25 26 27 27 29 30 31 32 34 35 36 37 38 39 41 43 44 45 44 44 44 45 46 48 48 48 48 48 48 49
6 6 7 7 7 8 9 10 9 11 12 12 13 14 15 17 18 19 20 21 22 23 24 24 25 26 27 28 30 31 32 34 35 37 39 40 40 41 42 42 43 45 45 47 48 48 48 48 48
4 5 6 7 7 8 8 9 9 9 10 11 11 12 13 14 15 16 17 17 17 18 20 21 21 23 25 26 27 28 29 31 32 34 35 37 38 39 40 41 41 42 43 44 45 47 48 49 50
3 4 5 6 7 7 7 7 8 9 9 9 9 9 10 10 12 12 14 15 15 15 16 18 19 20 22 24 25 26 27 28 30 31 32 34 36 37 37 38 39 40 40 42 44 46 47 47 49
3 4 5 6 7 7 7 7 7 7 7 7 8 8 9 9 10 11 11 12 12 12 13 14 15 16 17 19 21 22 24 26 27 28 29 30 31 33 33 34 37 38 39 40 41 42 43 44 44
4 4 6 6 7 7 7 6 7 7 7 7 7 7 8 8 8 8 9 10 10 9 9 9 11 12 13 14 16 17 18 20 21 22 23 24 26 27 29 30 32 33 34 35 36 37 39 40 40
Wind_Direction
231 231 231 232 232 233 234 234 234 234 235 236 236 237 238 239 241 245 245 246 246 247 249 250 250 251 252 253 255 256 256 256 256 257 257 258 260 262 262 261 262 263 264 267 270 272 273 275 275
231 230 230 231 232 234 234 234 235 235 236 236 237 238 239 240 242 245 246 247 247 247 248 250 251 252 253 253 254 256 256 256 258 258 258 258 260 261 262 261 261 262 263 265 268 271 272 273 274
230 230 230 231 232 234 235 235 235 236 236 237 237 238 240 241 243 246 247 248 247 247 248 250 251 252 253 254 255 255 256 256 257 259 259 259 260 261 262 262 262 262 263 264 266 268 270 270 271
229 229 230 231 232 233 235 235 236 237 237 238 238 239 240 242 244 246 247 247 247 247 248 249 251 252 253 255 255 256 255 256 256 258 259 259 260 260 260 261 262 262 263 263 265 267 268 269 271
228 229 230 231 232 233 234 236 236 238 239 239 239 240 241 243 245 246 247 247 247 247 248 249 250 251 252 253 255 256 256 256 256 257 258 259 260 260 260 260 262 263 263 263 264 265 267 268 269
227 228 229 230 231 232 234 236 236 238 239 239 241 241 242 244 245 246 247 247 248 248 248 249 250 251 252 253 254 255 256 256 256 257 258 259 260 260 260 260 261 262 262 263 264 264 265 267 268
226 227 228 229 230 232 234 235 236 236 237 238 240 242 243 244 245 246 247 248 249 249 249 250 250 251 252 253 254 254 255 256 256 257 258 258 259 259 259 260 260 261 262 263 263 264 264 265 267
224 225 226 227 229 230 232 234 235 235 236 238 239 241 242 243 245 246 247 248 249 250 250 251 252 252 252 253 254 255 255 256 256 257 258 258 258 259 260 261 261 262 262 262 263 263 263 264 265
223 224 225 226 228 230 231 233 235 236 237 237 239 241 242 242 244 245 247 248 249 250 251 252 252 253 253 253 254 255 255 256 256 257 257 258 259 259 259 261 261 262 261 262 262 263 263 264 265
222 224 225 226 228 229 231 233 235 237 238 238 239 240 241 242 244 245 246 248 249 250 251 251 252 253 253 253 254 254 255 255 256 256 257 258 259 260 260 260 260 261 261 262 262 262 263 263 264
221 224 225 226 227 229 230 232 235 237 239 240 240 241 242 243 244 246 247 248 249 250 251 251 252 252 253 253 253 254 254 255 255 256 257 258 259 259 259 259 259 260 261 262 262 262 263 263 264
220 223 225 226 228 229 231 233 235 237 239 241 242 242 242 243 244 246 248 249 250 251 252 252 252 252 252 252 252 253 254 254 255 255 255 256 257 258 259 259 259 260 261 261 262 262 262 263 264
219 223 225 227 228 230 231 233 235 238 239 241 243 244 245 246 246 247 248 249 250 251 252 253 253 253 252 252 253 252 253 253 254 255 255 255 256 257 258 259 259 259 260 261 261 262 263 263 264
219 221 224 227 229 231 232 234 236 238 240 242 244 245 247 248 249 249 250 250 251 251 252 253 253 253 253 253 253 253 252 252 253 254 254 254 255 256 257 258 258 259 261 261 261 261 262 263 264
221 223 224 227 230 232 234 236 239 240 242 244 245 247 248 249 250 251 251 251 252 252 253 253 254 254 254 254 253 252 252 252 252 253 254 254 254 255 256 257 257 259 259 260 261 262 262 263 263
222 224 226 228 231 233 235 238 240 243 244 245 247 248 250 251 252 253 253 253 253 253 253 254 254 254 254 254 253 253 252 252 252 252 252 254 255 255 255 255 256 258 259 259 260 261 262 262 262
221 224 227 229 232 234 237 239 241 243 246 247 249 250 251 253 254 255 256 255 255 255 255 254 254 254 254 254 253 253 253 252 252 252 252 253 254 254 254 254 256 258 259 259 260 261 261 261 261
221 226 228 230 232 235 239 241 243 246 248 250 251 252 253 255 256 257 258 257 256 256 255 255 255 255 255 255 254 253 253 253 252 252 252 253 252 253 253 254 255 257 258 259 260 261 260 260 261
221 226 231 235 236 238 241 243 246 248 250 253 255 255 255 257 259 260 260 260 259 258 257 257 257 256 256 256 255 253 253 253 252 252 252 252 252 251 253 254 254 256 257 258 259 260 260 260 260
220 226 231 236 239 241 243 246 249 252 254 256 257 258 258 259 260 261 261 261 260 259 259 259 258 257 256 256 255 253 252 253 252 251 252 252 252 252 252 253 254 256 256 257 258 259 259 259 260
221 226 230 235 241 245 247 249 253 256 258 258 259 259 260 261 262 263 263 262 262 260 259 259 258 257 256 255 255 253 253 253 253 252 253 253 253 252 252 252 253 254 256 257 258 258 258 259 260
225 229 234 239 244 248 252 256 257 258 259 259 259 260 261 263 264 264 263 262 261 261 260 259 259 258 256 256 255 254 254 253 253 253 253 253 253 253 252 253 253 253 255 257 257 259 259 260 261
230 235 241 246 250 252 256 261 260 259 261 262 262 263 264 265 264 264 263 263 263 264 262 260 260 259 258 257 255 254 254 253 252 253 253 253 254 254 254 253 253 254 254 256 257 258 258 258 259
238 243 246 250 252 254 257 261 263 263 266 266 266 267 267 265 265 265 265 265 265 266 265 263 261 260 260 257 255 255 256 254 253 253 252 252 252 253 254 254 254 254 254 255 256 256 257 258 259
245 246 249 250 250 254 257 261 266 267 268 268 269 270 269 268 268 268 268 268 268 267 266 264 263 261 260 257 256 256 255 253 253 253 252 252 252 252 253 255 255 255 254 254 255 256 257 258 260
242 249 252 260 263 263 267 271 273 271 272 275 275 275 274 272 273 272 273 271 271 269 266 264 263 260 258 258 257 255 255 255 254 253 252 251 251 252 253 254 255 254 255 254 254 256 256 258 260
243 256 264 272 274 271 272 276 279 279 281 282 282 280 279 278 276 276 276 275 274 273 269 266 263 259 258 259 257 255 256 256 256 255 253 251 253 254 255 254 254 254 255 255 254 256 257 258 260
265 270 275 279 282 280 277 281 287 285 283 283 287 287 286 285 284 281 280 278 279 277 274 269 267 265 263 261 260 258 257 256 256 257 255 254 255 256 256 254 254 255 257 257 257 258 259 259 260
300 289 286 288 290 294 290 292 295 290 288 287 292 292 289 287 286 286 286 285 284 286 284 279 274 272 270 266 263 259 257 257 257 257 257 257 258 257 256 256 257 257 258 258 259 260 260 260 261
327 307 300 298 298 297 296 299 296 292 295 298 302 300 298 298 301 302 301 296 291 290 292 291 285 279 274 269 266 263 260 260 260 260 258 258 258 257 257 259 260 260 261 260 261 261 262 261 263
Height
5798 5802 5807 5811 5815 5818 5822 5826 5830 5833 5836 5838 5841 5843 5846 5848 5850 5854 5856 5857 5859 5860 5861 5862 5864 5865 5866 5867 5868 5869 5870 5871 5872 5873 5874 5875 5875 5876 5876 5877 5877 5877 5878 5878 5878 5878 5878 5878 5878
5790 5795 5800 5804 5808 5812 5817 5821 5824 5827 5830 5833 5836 5838 5841 5843 5845 5848 5851 5853 5855 5856 5858 5859 5860 5862 5863 5864 5865 5866 5868 5869 5870 5871 5872 5872 5873 5874 5874 5875 5875 5875 5876 5876 5876 5876 5876 5876 5876
5782 5787 5793 5797 5801 5807 5812 5815 5819 5821 5824 5827 5831 5833 5836 5838 5841 5843 5846 5848 5851 5852 5854 5855 5857 5858 5859 5861 5862 5863 5864 5866 5867 5868 5869 5870 5870 5871 5871 5872 5872 5873 5873 5874 5874 5874 5874 5874 5874
5775 5780 5785 5791 5796 5801 5805 5809 5812 5815 5818 5822 5825 5828 5831 5834 5836 5838 5840 5843 5846 5847 5849 5851 5852 5854 5855 5857 5858 5860 5861 5862 5863 5864 5865 5866 5867 5868 5868 5869 5869 5870 5870 5871 5871 5871 5872 5872 5872
5766 5772 5778 5784 5789 5794 5798 5802 5805 5809 5813 5816 5820 5823 5825 5828 5830 5833 5835 5837 5840 5842 5844 5846 5848 5849 5851 5852 5854 5855 5857 5858 5859 5861 5862 5863 5864 5864 5865 5866 5866 5867 5867 5868 5868 5868 5869 5869 5869
5759 5765 5771 5777 5783 5787 5791 5795 5799 5803 5806 5810 5813 5817 5819 5822 5825 5827 5829 5831 5834 5836 5838 5840 5842 5844 5846 5848 5849 5851 5852 5854 5855 5856 5858 5859 5859 5860 5861 5862 5862 5863 5864 5864 5865 5865 5865 5866 5866
5753 5759 5765 5771 5776 5781 5785 5788 5793 5797 5800 5804 5807 5810 5813 5816 5819 5821 5823 5825 5828 5830 5832 5834 5836 5838 5840 5842 5844 5846 5848 5849 5850 5852 5853 5854 5855 5856 5857 5858 5858 5859 5859 5860 5860 5861 5861 5862 5862
5746 5753 5758 5763 5769 5775 5779 5782 5786 5790 5794 5798 5802 5805 5807 5810 5812 5815 5817 5819 5821 5824 5826 5828 5830 5832 5834 5836 5838 5840 5842 5844 5845 5847 5848 5849 5850 5851 5852 5853 5854 5855 5855 5856 5856 5857 5857 5857 5858
5739 5747 5751 5757 5763 5768 5772 5776 5780 5783 5788 5792 5795 5798 5801 5804 5806 5808 5810 5812 5815 5817 5819 5822 5824 5825 5827 5829 5831 5833 5835 5838 5839 5841 5842 5844 5845 5846 5847 5848 5849 5850 5850 5851 5851 5852 5852 5853 5853
5733 5740 5746 5752 5757 5762 5766 5770 5774 5777 5781 5785 5789 5792 5794 5797 5799 5802 5804 5806 5808 5810 5812 5815 5817 5818 5820 5822 5824 5826 5829 5831 5832 5834 5836 5837 5839 5840 5842 5843 5844 5844 5845 5846 5846 5847 5847 5848 5848
5728 5735 5740 5745 5750 5755 5760 5764 5767 5771 5775 5779 5782 5785 5787 5790 5792 5795 5797 5799 5801 5803 5805 5807 5809 5811 5813 5815 5817 5819 5821 5823 5825 5827 5829 5830 5832 5834 5835 5836 5837 5838 5839 5840 5840 5841 5842 5842 5843
5723 5729 5734 5739 5744 5749 5753 5757 5761 5765 5769 5771 5774 5777 5780 5783 5785 5787 5789 5791 5793 5795 5797 5799 5801 5803 5805 5807 5809 5811 5813 5815 5817 5819 5821 5823 5824 5826 5828 5829 5830 5831 5833 5834 5834 5835 5835 5836 5837
5718 5723 5729 5734 5738 5742 5747 5751 5755 5758 5761 5764 5767 5770 5772 5775 5777 5779 5781 5783 5785 5787 5789 5791 5793 5795 5797 5798 5801 5803 5805 5806 5808 5810 5812 5814 5816 5818 5820 5821 5823 5824 5825 5826 5827 5828 5829 5829 5830
5714 5718 5723 5728 5732 5736 5741 5744 5748 5751 5753 5757 5759 5762 5764 5767 5769 5772 5773 5775 5777 5779 5780 5782 5784 5786 5787 5789 5791 5793 5796 5798 5799 5801 5803 5805 5807 5810 5811 5813 5815 5816 5817 5818 5820 5821 5821 5822 5823
5710 5714 5719 5723 5727 5731 5735 5739 5742 5744 5747 5750 5752 5754 5756 5758 5760 5763 5764 5766 5768 5770 5771 5773 5775 5776 5778 5779 5781 5784 5786 5788 5790 5792 5794 5796 5798 5800 5802 5804 5806 5808 5809 5810 5811 5812 5813 5814 5815
5706 5710 5715 5719 5722 5725 5731 5733 5735 5737 5740 5743 5745 5747 5748 5750 5751 5753 5755 5757 5759 5760 5762 5763 5765 5766 5768 5769 5771 5773 5776 5778 5780 5782 5784 5786 5788 5791 5793 5795 5797 5798 5800 5801 5803 5804 5805 5806 5807
5703 5707 5711 5715 5717 5720 5723 5727 5729 5731 5733 5735 5737 5739 5740 5742 5743 5744 5745 5747 5748 5750 5751 5753 5754 5756 5757 5759 5761 5763 5765 5768 5770 5772 5774 5776 5778 5781 5783 5785 5787 5789 5790 5792 5793 5795 5796 5797 5797
5701 5704 5707 5710 5713 5716 5718 5721 5723 5724 5726 5728 5730 5731 5732 5733 5734 5735 5736 5737 5738 5739 5740 5741 5743 5744 5746 5748 5750 5752 5754 5757 5759 5761 5764 5766 5768 5770 5772 5775 5777 5779 5780 5782 5784 5785 5786 5787 5788
5699 5702 5704 5707 5709 5711 5713 5715 5717 5718 5720 5721 5722 5723 5724 5725 5725 5725 5726 5726 5727 5728 5729 5730 5731 5733 5734 5736 5738 5740 5743 5745 5748 5750 5753 5755 5757 5759 5762 5764 5766 5768 5770 5772 5773 5774 5776 5777 5778
5697 5700 5702 5704 5705 5707 5709 5710 5711 5712 5713 5714 5715 5715 5716 5716 5716 5717 5717 5717 5717 5717 5718 5719 5720 5721 5722 5724 5726 5728 5730 5733 5736 5738 5741 5743 5745 5748 5750 5753 5755 5757 5759 5760 5762 5764 5765 5766 5767
5695 5697 5699 5701 5702 5703 5705 5706 5707 5707 5707 5707 5708 5708 5708 5708 5708 5708 5708 5707 5707 5707 5707 5708 5708 5709 5710 5711 5713 5715 5718 5720 5723 5726 5728 5731 5733 5735 5738 5741 5743 5746 5747 5749 5751 5752 5753 5755 5757
5693 5695 5696 5697 5699 5699 5701 5701 5702 5701 5701 5701 5701 5701 5701 5701 5700 5699 5699 5698 5698 5697 5697 5697 5697 5697 5698 5699 5701 5703 5705 5708 5711 5713 5716 5718 5720 5723 5726 5728 5731 5734 5735 5738 5739 5741 5742 5744 5745
5692 5693 5694 5695 5695 5696 5696 5697 5698 5696 5696 5696 5696 5695 5694 5694 5693 5692 5691 5691 5690 5689 5688 5688 5687 5688 5688 5689 5690 5692 5694 5696 5698 5701 5703 5706 5708 5710 5713 5716 5719 5721 5723 5725 5727 5729 5731 5732 5734
5691 5692 5692 5692 5692 5693 5693 5693 5693 5692 5692 5691 5690 5689 5688 5687 5687 5685 5684 5683 5682 5681 5680 5679 5678 5679 5679 5679 5681 5682 5684 5685 5687 5689 5692 5695 5697 5700 5702 5705 5707 5709 5711 5713 5715 5717 5719 5721 5722
5690 5691 5691 5690 5690 5691 5690 5689 5690 5688 5687 5686 5685 5684 5683 5682 5681 5679 5678 5677 5676 5674 5672 5671 5670 5670 5671 5671 5672 5673 5675 5676 5678 5680 5682 5684 5687 5690 5692 5694 5696 5698 5699 5701 5703 5705 5707 5709 5710
5688 5689 5690 5689 5688 5688 5687 5686 5687 5685 5683 5682 5681 5679 5678 5677 5675 5674 5672 5671 5669 5668 5666 5665 5664 5664 5664 5664 5665 5666 5667 5668 5670 5671 5673 5675 5677 5680 5682 5684 5686 5687 5689 5690 5692 5694 5696 5697 5698
5687 5687 5687 5687 5686 5685 5684 5684 5683 5681 5680 5678 5677 5675 5674 5672 5670 5669 5667 5666 5664 5662 5661 5660 5659 5659 5659 5659 5659 5659 5660 5661 5663 5663 5664 5666 5669 5670 5672 5674 5676 5677 5679 5680 5681 5683 5684 5685 5686
5687 5686 5686 5685 5684 5683 5682 5681 5680 5678 5677 5675 5674 5672 5670 5668 5666 5664 5662 5661 5659 5658 5656 5655 5653 5653 5652 5652 5652 5653 5654 5654 5656 5656 5657 5659 5660 5661 5662 5664 5666 5667 5669 5670 5671 5672 5672 5673 5674
5686 5685 5683 5682 5682 5681 5679 5681 5678 5676 5674 5672 5671 5668 5666 5664 5662 5660 5658 5657 5655 5654 5652 5650 5649 5648 5647 5647 5647 5647 5648 5648 5649 5650 5651 5651 5652 5653 5654 5655 5656 5658 5658 5659 5659 5660 5661 5661 5662
5684 5683 5682 5681 5680 5678 5677 5680 5675 5673 5671 5669 5668 5666 5663 5661 5659 5657 5655 5653 5652 5650 5649 5647 5645 5644 5643 5643 5642 5642 5642 5643 5643 5643 5644 5645 5645 5646 5646 5647 5648 5648 5648 5649 5649 5650 5650 5650 5651